Temp
12 12 11 11 11 11 12 12 12 13 13 13 13 13 14 13 13 13 13 13 13 13 13 13 13 13 13 13 13 13 13 13 13 13 13 13 13 13 13 14 14 14
11 11 11 11 11 11 11 12 12 12 13 13 13 13 13 13 13 13 13 13 13 13 13 13 13 13 13 13 13 13 13 13 13 13 13 13 13 13 13 14 14 13
10 10 10 10 10 10 11 11 12 12 12 12 12 13 13 13 13 13 13 13 13 13 13 13 14 13 13 13 13 13 13 13 13 13 13 13 13 13 13 13 13 13
9 10 10 10 10 11 11 11 12 13 12 12 12 12 12 13 13 13 13 13 13 13 13 13 14 14 13 13 13 13 13 12 13 13 13 13 13 13 13 13 13 13
9 9 10 10 11 11 11 11 11 12 12 11 11 12 12 12 12 12 12 12 13 13 13 13 13 13 13 13 13 13 13 12 12 12 13 13 13 13 13 13 13 13
9 10 10 10 11 11 11 10 11 12 12 12 12 12 12 12 12 12 12 12 12 13 13 13 13 13 13 13 13 13 13 13 13 12 12 13 13 13 12 12 12 12
9 10 10 10 10 10 9 9 10 11 12 12 12 12 11 11 12 12 12 12 12 12 12 12 13 13 13 13 13 13 13 13 13 13 12 12 12 12 12 12 12 12
9 10 11 10 10 9 9 9 10 11 11 11 11 11 11 11 11 12 12 12 12 12 12 12 12 13 13 13 13 13 13 13 14 14 13 12 12 12 12 12 12 12
8 9 10 9 8 8 8 8 9 9 9 10 10 10 10 10 11 11 11 12 12 12 12 12 12 12 12 13 13 13 13 13 13 14 13 12 12 12 12 12 12 12
7 7 7 7 7 7 7 7 7 8 8 8 9 10 10 10 11 11 11 11 11 11 11 11 12 12 12 12 12 13 13 13 13 13 13 12 12 12 12 12 12 12
7 6 6 6 6 6 7 7 7 7 7 7 8 9 10 10 10 11 11 11 11 11 11 11 11 12 12 12 12 12 12 12 13 13 13 12 12 12 12 12 12 12
7 6 6 6 7 7 7 7 6 6 7 8 8 9 9 10 10 10 10 10 10 11 11 11 11 11 12 12 12 12 12 12 12 13 13 12 12 12 12 12 12 12
6 6 6 6 7 6 6 6 6 6 8 9 9 9 9 10 10 10 10 10 10 10 10 11 11 11 12 11 11 11 11 11 12 12 12 12 12 12 12 12 13 12
6 6 6 6 6 6 6 6 6 7 8 9 9 10 10 10 9 9 9 9 9 9 10 10 11 11 11 11 11 11 11 11 11 12 12 12 12 13 13 12 12 13
5 5 6 5 5 5 5 5 6 7 7 8 9 9 9 9 9 9 9 9 9 9 9 10 10 10 10 10 10 11 11 11 11 11 12 12 12 12 12 12 12 12
5 5 5 5 5 5 5 5 6 6 7 8 8 8 8 9 8 8 8 8 8 8 9 9 10 10 10 10 10 10 11 11 11 11 11 11 11 12 12 12 12 12
4 4 4 4 4 4 4 5 6 7 7 8 8 8 8 8 8 8 8 8 8 8 8 9 9 10 10 10 10 10 10 10 11 11 11 11 11 11 12 12 12 12
4 4 4 4 4 4 4 4 5 7 7 7 7 7 7 7 8 8 8 8 8 8 8 8 9 9 10 10 10 10 10 10 11 11 11 11 11 11 11 12 12 11
3 3 4 3 3 3 3 4 4 5 6 6 5 5 5 6 6 7 7 7 8 8 8 8 8 9 9 9 10 10 10 11 11 11 11 11 11 11 11 11 12 11
3 3 3 3 3 3 3 3 3 4 4 4 4 4 4 4 4 5 6 6 7 7 7 7 8 8 9 9 9 9 10 10 11 11 11 11 11 11 11 11 11 11
3 3 3 3 3 3 3 3 3 3 3 3 3 3 4 3 3 4 5 6 6 6 6 6 7 8 8 9 9 9 9 10 10 11 11 11 11 11 11 11 11 11
3 3 3 3 3 3 3 3 3 3 2 2 2 3 3 3 3 3 3 5 5 6 6 7 7 7 8 8 9 9 9 9 10 10 10 11 11 11 11 11 11 11
2 2 2 2 3 3 3 3 2 2 2 2 2 2 3 3 3 2 2 3 4 5 6 6 7 7 7 8 8 8 8 8 9 9 10 10 10 10 10 11 11 11
2 2 2 2 2 2 2 2 2 2 2 2 2 2 2 2 2 1 2 2 3 4 4 5 6 6 7 7 8 8 7 7 8 9 9 9 10 10 10 10 11 11
2 2 2 2 2 2 2 2 2 2 1 1 2 1 1 1 1 1 1 1 2 3 3 4 5 6 6 7 7 8 8 7 7 8 8 8 9 9 9 10 10 11
2 2 2 2 2 2 2 1 1 1 1 1 1 1 1 0 0 1 1 1 1 2 2 3 4 4 5 6 6 7 7 7 7 7 7 7 8 8 9 9 10 11
Height
1515 1514 1513 1513 1513 1514 1514 1514 1514 1513 1513 1512 1512 1512 1511 1512 1512 1512 1512 1511 1511 1511 1511 1510 1510 1510 1509 1509 1509 1511 1511 1511 1511 1511 1512 1511 1511 1511 1512 1512 1513 1514
1514 1514 1513 1513 1512 1513 1513 1513 1513 1512 1511 1511 1510 1510 1510 1510 1510 1510 1510 1510 1509 1509 1508 1508 1508 1508 1507 1506 1506 1508 1509 1510 1508 1508 1508 1508 1509 1509 1509 1510 1511 1512
1514 1513 1513 1512 1512 1512 1512 1512 1512 1511 1511 1510 1509 1509 1508 1508 1507 1507 1507 1507 1507 1507 1506 1506 1506 1506 1505 1505 1505 1506 1507 1507 1506 1506 1506 1505 1506 1506 1506 1507 1507 1508
1514 1513 1512 1512 1511 1511 1510 1510 1511 1511 1510 1509 1508 1507 1507 1506 1506 1505 1505 1505 1504 1504 1504 1504 1504 1504 1504 1503 1504 1504 1504 1504 1504 1504 1503 1502 1502 1502 1503 1504 1504 1505
1514 1513 1512 1511 1510 1509 1509 1509 1509 1509 1508 1508 1507 1506 1505 1505 1504 1504 1503 1503 1502 1502 1502 1502 1502 1502 1502 1502 1502 1502 1501 1501 1501 1501 1500 1500 1500 1500 1500 1501 1501 1502
1514 1513 1511 1510 1509 1509 1508 1507 1507 1507 1506 1506 1505 1504 1504 1503 1503 1502 1502 1501 1500 1500 1500 1500 1500 1500 1500 1500 1500 1500 1499 1499 1499 1500 1499 1498 1498 1497 1497 1498 1498 1499
1513 1512 1511 1510 1509 1508 1508 1506 1505 1505 1504 1504 1503 1503 1502 1502 1501 1501 1501 1500 1499 1499 1499 1498 1498 1498 1498 1498 1497 1497 1497 1497 1497 1498 1499 1498 1497 1496 1495 1495 1495 1496
1513 1512 1511 1510 1509 1509 1507 1506 1504 1503 1502 1502 1501 1501 1500 1500 1500 1499 1499 1499 1498 1498 1498 1497 1496 1496 1495 1495 1495 1495 1495 1494 1494 1495 1496 1496 1495 1493 1492 1492 1493 1494
1514 1512 1511 1510 1509 1508 1507 1505 1504 1502 1501 1500 1499 1498 1498 1498 1498 1498 1497 1497 1496 1497 1496 1496 1495 1493 1493 1493 1493 1493 1492 1491 1491 1491 1493 1493 1493 1491 1490 1490 1491 1491
1515 1513 1512 1511 1510 1509 1507 1505 1503 1501 1500 1499 1498 1497 1496 1496 1496 1495 1495 1495 1494 1495 1494 1494 1493 1492 1492 1491 1490 1491 1490 1489 1489 1489 1490 1491 1491 1490 1489 1489 1490 1490
1517 1515 1513 1513 1512 1510 1508 1505 1503 1501 1500 1498 1497 1496 1495 1495 1494 1493 1493 1493 1492 1492 1492 1492 1491 1491 1490 1488 1488 1488 1488 1488 1487 1487 1488 1489 1490 1489 1487 1487 1487 1487
1518 1516 1515 1514 1512 1511 1509 1506 1504 1501 1499 1498 1496 1495 1494 1493 1492 1492 1491 1491 1491 1490 1490 1489 1489 1488 1487 1486 1485 1485 1486 1486 1485 1484 1485 1486 1487 1488 1486 1484 1484 1484
1518 1517 1515 1514 1513 1511 1509 1506 1504 1502 1499 1497 1496 1494 1493 1492 1491 1490 1489 1489 1489 1488 1488 1487 1486 1485 1484 1484 1483 1482 1482 1482 1482 1482 1482 1482 1484 1485 1484 1482 1481 1481
1519 1517 1516 1515 1513 1511 1509 1507 1504 1502 1499 1497 1495 1493 1492 1491 1490 1488 1487 1487 1486 1485 1485 1485 1484 1483 1481 1480 1478 1478 1479 1479 1478 1479 1479 1479 1479 1479 1479 1478 1478 1477
1519 1518 1516 1514 1513 1511 1509 1507 1504 1502 1500 1498 1495 1493 1492 1490 1489 1487 1485 1484 1483 1483 1482 1482 1482 1480 1478 1476 1475 1475 1475 1475 1475 1476 1476 1475 1475 1474 1475 1475 1475 1474
1519 1517 1516 1514 1512 1510 1509 1506 1504 1502 1500 1498 1496 1494 1492 1490 1488 1486 1484 1483 1481 1480 1480 1480 1479 1476 1474 1474 1474 1473 1472 1472 1472 1472 1472 1472 1471 1470 1471 1471 1471 1471
1519 1517 1516 1514 1512 1510 1508 1506 1504 1502 1500 1498 1496 1494 1492 1490 1488 1486 1484 1482 1480 1479 1478 1477 1475 1473 1471 1470 1471 1470 1470 1468 1468 1468 1468 1468 1467 1467 1467 1467 1467 1467
1519 1517 1516 1515 1513 1511 1509 1506 1504 1502 1500 1498 1496 1495 1493 1491 1489 1486 1484 1482 1480 1478 1476 1475 1473 1471 1468 1467 1466 1466 1466 1464 1464 1464 1463 1463 1463 1463 1463 1463 1463 1463
1520 1518 1516 1515 1513 1512 1510 1507 1505 1503 1500 1499 1497 1495 1494 1492 1489 1487 1485 1482 1480 1478 1476 1474 1472 1469 1467 1464 1461 1461 1460 1459 1459 1459 1459 1458 1459 1459 1459 1458 1459 1459
1521 1519 1517 1516 1515 1513 1511 1509 1506 1504 1502 1500 1498 1496 1494 1492 1490 1488 1485 1483 1480 1478 1476 1473 1471 1468 1465 1462 1459 1456 1455 1454 1454 1454 1454 1454 1454 1454 1454 1454 1455 1455
1522 1521 1519 1517 1516 1514 1512 1510 1508 1506 1503 1501 1498 1497 1495 1493 1491 1489 1486 1483 1481 1478 1476 1474 1471 1467 1464 1460 1457 1453 1450 1449 1448 1449 1450 1451 1451 1451 1450 1451 1452 1452
1523 1521 1520 1518 1517 1515 1513 1511 1509 1507 1504 1502 1500 1498 1496 1494 1492 1490 1487 1484 1482 1479 1476 1474 1471 1467 1463 1460 1455 1451 1448 1446 1445 1445 1447 1447 1447 1447 1447 1448 1449 1449
1524 1522 1521 1519 1517 1516 1514 1512 1510 1508 1506 1503 1501 1499 1497 1495 1493 1491 1488 1486 1483 1480 1477 1474 1471 1467 1464 1460 1456 1451 1447 1445 1443 1443 1444 1444 1444 1444 1444 1444 1445 1446
1525 1523 1522 1520 1518 1517 1515 1513 1511 1509 1507 1505 1503 1501 1498 1496 1494 1492 1490 1487 1484 1481 1478 1475 1472 1468 1465 1462 1458 1453 1449 1446 1444 1444 1443 1442 1442 1442 1442 1441 1440 1441
1526 1525 1523 1521 1520 1518 1516 1514 1512 1510 1508 1506 1504 1502 1500 1498 1496 1494 1491 1488 1485 1482 1479 1476 1473 1470 1466 1463 1460 1456 1453 1450 1448 1446 1444 1443 1442 1441 1441 1440 1438 1439
1528 1526 1524 1523 1521 1519 1518 1516 1513 1511 1509 1506 1504 1503 1501 1499 1497 1495 1493 1490 1487 1484 1481 1478 1475 1472 1468 1465 1462 1460 1456 1453 1451 1449 1447 1446 1445 1443 1441 1439 1436 1437
Wind_Speed
9 9 10 9 8 6 6 9 11 12 14 15 15 15 16 16 16 17 18 18 18 19 19 19 19 20 20 21 21 22 24 26 27 26 26 27 28 28 29 29 29 29
12 11 12 12 11 9 7 7 9 11 13 15 16 16 16 17 17 18 20 21 21 20 18 19 21 21 20 20 21 22 23 25 27 26 26 27 27 27 29 29 30 30
12 12 12 12 13 12 11 8 7 8 11 14 15 16 16 17 18 18 20 23 24 22 19 19 21 23 23 21 20 22 23 25 27 26 26 27 27 27 28 29 30 30
14 15 14 13 12 13 13 11 7 6 10 13 15 16 16 18 19 19 19 22 24 23 21 21 21 23 23 22 21 22 24 25 26 26 27 27 27 27 27 27 29 29
15 16 16 16 15 15 14 12 9 7 9 12 14 15 16 17 19 19 19 20 21 22 22 22 22 22 22 22 21 22 23 24 26 27 27 26 27 28 28 27 27 28
16 17 17 18 18 17 16 14 12 10 10 12 13 14 15 17 18 19 19 19 20 20 21 22 23 22 21 21 21 22 23 24 25 27 28 28 27 28 29 28 28 28
18 18 17 18 18 18 18 17 17 15 12 12 13 13 14 16 17 18 18 19 19 19 19 20 21 21 20 21 21 23 23 23 24 26 28 29 28 28 29 30 29 28
18 18 17 18 18 18 19 19 20 19 14 12 13 13 12 14 17 18 18 19 18 18 18 19 21 21 21 21 22 24 24 24 24 26 28 29 29 29 30 30 29 28
19 19 18 19 19 20 20 19 19 20 18 15 14 12 11 12 16 18 18 19 20 20 19 20 22 22 22 23 24 25 26 26 26 27 29 30 30 30 30 30 29 28
22 21 20 21 22 22 22 21 19 19 19 18 17 15 13 13 14 15 16 17 19 20 20 21 22 23 24 25 27 27 27 28 28 28 29 30 29 29 28 27 28 29
23 22 21 22 23 24 24 23 22 20 20 19 18 17 16 15 15 16 15 15 16 19 20 22 22 23 24 26 28 28 27 28 28 28 29 30 29 29 28 27 28 29
22 21 22 22 22 22 23 22 22 23 21 20 19 18 17 17 18 18 18 17 16 17 17 19 20 22 24 25 26 27 27 28 29 29 30 30 30 30 29 28 28 28
21 20 21 21 20 20 20 20 21 22 21 21 20 19 19 20 20 21 21 20 20 19 17 16 18 21 22 22 24 24 25 26 29 30 29 29 31 31 29 29 28 28
21 20 20 20 18 19 19 20 20 21 22 22 21 20 20 21 21 22 23 23 24 24 21 19 18 18 18 19 21 22 21 23 25 28 28 28 30 29 28 29 28 30
19 19 19 19 18 18 19 19 19 21 23 24 23 22 21 20 20 20 22 23 24 25 25 24 22 21 20 20 20 22 23 24 23 24 25 27 28 28 28 29 30 31
19 18 19 20 20 20 19 19 19 20 22 23 24 24 22 20 20 19 18 19 20 21 23 23 23 26 28 26 22 20 22 24 25 25 24 26 28 29 30 30 30 31
20 19 20 20 21 21 20 20 20 19 20 22 24 26 25 23 22 21 20 19 18 18 18 18 20 25 28 29 27 24 23 24 26 27 26 26 27 29 30 30 29 31
21 21 21 21 22 22 23 23 21 20 19 21 23 25 27 27 26 25 24 22 19 18 18 16 17 21 24 27 29 29 29 29 28 28 28 27 26 27 30 30 29 31
21 21 21 22 22 23 24 25 25 24 22 22 23 24 26 27 28 28 28 27 25 22 21 20 19 20 21 23 26 27 29 31 31 30 29 28 26 27 29 30 29 29
21 21 21 22 23 23 24 24 26 27 25 24 23 24 25 26 26 27 28 28 28 28 27 26 25 25 25 24 22 23 26 30 32 31 30 29 28 28 28 29 29 30
21 21 22 22 23 24 24 23 24 26 27 26 24 24 24 24 24 26 27 27 27 28 28 28 28 29 30 30 27 22 21 25 30 31 30 28 28 28 29 28 28 29
21 21 22 22 23 24 24 24 24 25 26 27 25 24 23 23 23 25 27 27 26 26 26 28 29 30 31 33 33 27 20 18 22 26 27 27 28 27 27 27 27 28
21 21 22 23 24 24 25 25 25 25 26 26 26 25 25 24 24 24 26 27 26 26 27 28 29 30 30 32 35 32 24 18 15 16 19 24 27 25 24 26 29 30
22 22 22 23 23 24 25 25 24 25 25 25 24 24 25 25 25 25 26 27 27 26 27 27 29 30 30 31 33 32 27 22 18 13 13 18 23 24 23 25 29 30
23 23 23 24 24 24 25 25 23 23 23 23 22 22 23 24 25 26 28 29 27 26 27 27 28 29 29 29 30 30 27 23 18 13 10 10 13 18 21 23 28 29
23 23 24 24 24 24 25 25 24 23 23 23 22 22 22 22 23 25 28 30 29 28 27 28 28 28 28 27 26 26 26 24 21 17 13 10 7 9 11 15 24 27
Wind_Direction
340 338 338 338 333 315 290 293 306 308 302 300 299 293 290 288 279 269 268 270 269 265 266 269 266 261 257 254 253 250 248 246 245 245 245 245 244 242 241 240 237 234
340 343 344 344 344 336 309 285 287 299 305 305 305 301 296 294 288 278 274 275 273 269 268 270 270 266 261 255 252 250 250 250 248 248 247 246 245 243 241 239 236 234
342 347 348 348 346 339 331 312 286 287 301 305 306 305 300 297 296 290 285 280 278 274 271 269 269 268 264 259 255 253 251 251 252 250 249 248 246 243 240 238 237 235
350 350 348 349 345 335 330 326 313 288 295 307 309 305 303 301 299 296 292 287 282 277 272 269 270 271 269 263 259 256 252 250 252 252 250 248 246 244 243 241 238 237
353 350 349 348 344 338 333 328 319 297 291 302 306 305 305 305 303 301 298 293 286 279 273 270 271 275 274 268 263 261 258 254 254 254 250 248 247 246 246 244 241 239
350 349 349 346 340 339 340 333 322 312 300 295 295 300 306 307 307 307 304 299 291 284 278 272 272 275 276 272 269 268 266 263 262 260 255 252 250 248 246 246 243 239
347 345 343 339 337 337 338 334 330 328 320 305 292 290 302 309 308 306 303 300 296 290 284 277 274 275 274 271 269 270 270 269 269 268 264 258 252 248 247 246 244 242
349 345 339 337 337 336 335 334 335 335 332 320 303 293 303 316 316 310 304 301 300 296 291 284 279 275 274 272 270 271 272 271 270 269 266 260 252 248 248 248 247 245
355 347 346 349 346 343 343 341 338 338 334 328 319 308 305 312 315 316 311 306 303 299 296 292 287 281 277 275 273 272 271 270 268 266 264 260 254 251 250 249 250 247
359 351 356 359 354 352 353 348 344 344 339 334 329 319 308 302 305 311 312 307 303 303 302 298 293 289 283 277 274 273 271 269 267 265 264 261 257 256 253 251 251 249
357 354 2 1 355 357 356 351 351 351 345 340 333 322 311 303 299 302 303 301 302 305 305 303 300 295 288 280 274 272 271 269 267 268 270 266 261 260 258 256 256 253
356 357 5 359 355 358 354 353 357 353 346 342 333 323 314 305 299 298 296 296 297 298 300 306 306 297 291 288 281 276 274 270 267 268 271 269 263 262 261 260 259 254
359 1 3 356 354 355 351 355 359 352 348 346 337 326 317 308 302 297 295 293 291 290 290 299 303 299 297 297 291 286 282 276 271 267 267 266 265 265 263 260 258 254
1 2 1 356 354 353 353 358 359 356 357 356 348 339 330 320 311 301 296 294 292 292 290 288 293 299 303 302 293 286 282 281 276 268 264 265 265 264 263 261 258 255
2 3 1 357 355 357 358 359 1 3 5 5 3 358 348 338 330 317 307 300 297 296 293 289 289 288 288 295 296 287 279 277 279 273 265 262 262 263 264 263 258 254
3 4 3 1 0 1 1 1 5 7 8 10 13 10 5 358 350 342 332 322 313 308 302 297 292 284 279 282 289 290 283 275 273 274 269 263 262 264 265 263 259 254
5 6 7 6 3 3 3 4 7 8 8 11 14 14 14 13 8 3 357 350 342 335 326 313 300 290 285 282 281 281 281 276 271 270 271 267 262 262 262 262 261 256
7 8 9 8 6 5 5 4 6 9 10 11 13 14 13 13 16 16 11 5 2 355 350 341 321 306 298 292 286 279 276 276 274 270 269 268 265 263 262 262 261 257
9 9 9 9 7 7 5 2 4 8 10 11 13 12 10 9 12 16 17 14 11 8 4 359 350 338 325 310 298 287 277 272 271 270 268 267 267 265 263 261 260 259
10 9 9 8 7 7 6 2 2 3 6 9 12 12 11 9 8 11 16 17 16 15 11 7 3 360 354 342 324 303 286 274 270 268 267 266 265 265 264 262 259 258
11 9 8 8 7 6 6 4 3 1 0 4 9 11 10 10 8 8 12 16 17 18 15 10 7 3 360 356 347 331 305 285 274 269 268 267 266 265 263 262 260 258
11 10 10 10 9 8 7 5 5 3 359 360 4 6 7 8 8 8 10 13 16 18 18 14 9 5 2 359 355 347 333 308 285 274 271 271 269 267 263 260 257 252
12 12 15 15 13 11 9 7 7 5 2 1 1 1 2 7 9 7 8 12 13 15 18 17 13 9 5 4 1 356 350 345 327 298 280 274 271 268 263 257 250 243
13 14 16 16 15 13 9 8 7 4 2 4 4 360 358 4 11 10 9 13 15 16 18 18 16 13 9 7 7 4 1 1 355 335 301 284 278 272 267 255 242 236
17 17 18 17 17 15 9 6 7 5 3 5 7 3 360 4 11 13 14 16 18 17 18 19 17 15 12 10 10 11 13 13 3 347 327 305 284 273 267 250 231 224
20 20 21 18 18 18 13 9 10 8 5 7 8 7 7 10 13 14 16 20 23 22 21 21 20 17 14 13 13 15 20 24 20 12 5 358 324 273 253 226 215 215